Location: Marcé
(47.5801°N, 0.3280°W)
Time: 20:27:20
(UTC+01:00)

Tiros 1 - Pass Details

Date: 07 December 2021
Orbit: 630 x 663 km, 48.4° (Epoch: 20 January)

Event Time Altitude Azimuth Distance (km) Brightness Sun altitude
Rises 22:44:56 0° 285° (WNW) 2,941 - -54.3°
Reaches altitude 10° 22:47:16 10° 283° (WNW) 2,036 - -54.7°
Maximum altitude 22:51:56 67° 201° (SSW) 702 - -55.3°
Drops below altitude 10° 22:56:37 10° 119° (ESE) 2,052 - -56.0°
Sets 22:58:58 0° 117° (ESE) 2,966 - -56.3°
